Weather History for Broomfield, CO

Change the Weather History Date:

Tuesday, May 1, 2012

  Actual Average Record
Temperature  
Mean Temperature 64 °F -  
Max Temperature 77 °F 62 °F 87 °F (1992)
Min Temperature 50 °F 40 °F 12 °F (1987)
Degree Days  
Heating Degree Days 2    
Growing Degree Days 14 (Base 50)    
Moisture  
Dew Point 18 °F    
Average Humidity 21    
Maximum Humidity 41    
Minimum Humidity 9    
Precipitation  
Precipitation 0.00 in - - ()
Sea Level Pressure  
Sea Level Pressure 29.77 in    
Wind  
Wind Speed 6 mph (SW)    
Max Wind Speed 22 mph    
Max Gust Speed 29 mph    
Visibility 9 miles    
Events      
Averages and records for this station are not official NWS values.
T = Trace of Precipitation, MM = Missing Value Source: NWS Daily Summary

Daily Weather History Graph

Daily Weather History Graph

Search for Another Location

Airport:

Trip Planner

Search our weather history database for the weather conditions in past years. The results will help you decide how hot, cold, wet, or windy it might be!

Date:

Astronomy

May. 01, 2012 Rise Set
Actual Time 5:59 AM MDT 7:55 PM MDT
Civil Twilight 5:30 AM MDT 8:24 PM MDT
Nautical Twilight 4:55 AM MDT 9:00 PM MDT
Astronomical Twilight 4:16 AM MDT 9:39 PM MDT
Moon 3:02 PM MDT (5/1) 2:58 AM MDT (5/1)
Length of Visible Light 14h 54m
Length of Day
13h 55m
Waxing Gibbous, 74% of the Moon is Illuminated
May 1
Waxing Gibbous
May 5
Full
May 12
Last Quarter
May 20
New
May 28
First Quarter

Hourly Weather History & Observations

Time (MDT) Temp. Dew Point Humidity Pressure Visibility Wind Dir Wind Speed Gust Speed Precip Events Conditions
12:14 AM 55.4 °F 14.0 °F 20% 29.80 in 10.0 mi West 8.1 mph - N/A   Clear
12:34 AM 55.4 °F 14.0 °F 20% 29.79 in 10.0 mi SW 3.5 mph - N/A   Clear
12:54 AM 59.0 °F 14.0 °F 17% 29.79 in 10.0 mi WSW 4.6 mph - N/A   Clear
1:14 AM 59.0 °F 10.4 °F 15% 29.78 in 10.0 mi West 4.6 mph - N/A   Clear
1:34 AM 59.0 °F 10.4 °F 15% 29.77 in 10.0 mi WNW 3.5 mph - N/A   Clear
1:53 AM 59.0 °F 10.4 °F 15% 29.77 in 10.0 mi WSW 5.8 mph - N/A   Clear
2:14 AM 59.0 °F 10.4 °F 15% 29.76 in 10.0 mi Calm Calm - N/A   Clear
2:34 AM 59.0 °F 15.8 °F 19% 29.77 in 10.0 mi South 3.5 mph - N/A   Clear
2:54 AM 57.2 °F 14.0 °F 18% 29.76 in 10.0 mi WSW 3.5 mph - N/A   Clear
3:14 AM 60.8 °F 10.4 °F 14% 29.77 in 10.0 mi Calm Calm - N/A   Clear
3:34 AM 55.4 °F 17.6 °F 23% 29.77 in 10.0 mi Calm Calm - N/A   Clear
3:54 AM 55.4 °F 17.6 °F 23% 29.76 in 10.0 mi SSE 3.5 mph - N/A   Clear
4:14 AM 53.6 °F 19.4 °F 26% 29.76 in 10.0 mi SSW 3.5 mph - N/A   Clear
4:34 AM 50.0 °F 19.4 °F 30% 29.77 in 10.0 mi WSW 9.2 mph - N/A   Clear
4:54 AM 51.8 °F 17.6 °F 26% 29.77 in 10.0 mi WSW 6.9 mph - N/A   Clear
5:13 AM 51.8 °F 17.6 °F 26% 29.76 in 10.0 mi WSW 5.8 mph - N/A   Clear
5:34 AM 51.8 °F 17.6 °F 26% 29.76 in 10.0 mi Calm Calm - N/A   Clear
5:50 AM 53.6 °F 17.6 °F 24% 29.76 in 30.0 mi SW 4.6 mph - N/A   Mostly Cloudy
5:53 AM 51.8 °F 19.4 °F 28% 29.76 in 10.0 mi WSW 3.5 mph - N/A   Clear
6:53 AM 53.6 °F 19.4 °F 26% 29.76 in 30.0 mi WSW 6.9 mph - N/A   Mostly Cloudy
8:50 AM 60.8 °F 24.8 °F 25% 29.76 in 50.0 mi Variable 4.6 mph - N/A   Mostly Cloudy
9:50 AM 66.2 °F 23.0 °F 19% 29.75 in 50.0 mi SSE 5.8 mph - N/A   Mostly Cloudy
10:49 AM 71.6 °F 10.4 °F 9% 29.75 in 50.0 mi WSW 3.5 mph - N/A   Mostly Cloudy
11:50 AM 75.2 °F 17.6 °F 11% 29.74 in 50.0 mi WNW 12.7 mph - N/A   Mostly Cloudy
1:55 PM 77.0 °F 19.4 °F 12% 29.71 in 50.0 mi West 21.9 mph 28.8 mph N/A   Mostly Cloudy
2:51 PM 77.0 °F 21.2 °F 12% 29.71 in 40.0 mi West 20.7 mph 28.8 mph N/A   Mostly Cloudy
4:53 PM 73.4 °F 15.8 °F 11% 29.71 in 40.0 mi SW 13.8 mph 21.9 mph N/A   Scattered Clouds
5:47 PM 77.0 °F 12.2 °F 9% 29.72 in 30.0 mi SW 13.8 mph 26.5 mph N/A   Mostly Cloudy
6:53 PM 73.4 °F 15.8 °F 11% 29.74 in 30.0 mi West 13.8 mph - N/A   Scattered Clouds
7:54 PM 66.2 °F 26.6 °F 23% 29.76 in 30.0 mi Variable 3.5 mph - N/A   Mostly Cloudy
8:53 PM 66.2 °F 28.4 °F 24% 29.79 in 30.0 mi SSE 8.1 mph - N/A   Mostly Cloudy
11:14 PM 59.0 °F 32.0 °F 36% 29.86 in 2.0 mi SE 5.8 mph - N/A   Haze
11:34 PM 57.2 °F 32.0 °F 38% 29.85 in 2.5 mi Calm Calm - N/A   Haze
11:53 PM 57.2 °F 33.8 °F 41% 29.84 in 4.0 mi South 4.6 mph - N/A   Haze